Home   Weather   33°41'N, 117°55'W   Past weeks
Flag for USA

Past Weather in 33°41'N, 117°55'W, USA — Yesterday and Last 2 Weeks

Now
65 °F

More clouds than sun.


Feels Like: 65 °F
Forecast: 69 / 63 °F
Wind: 9 mph from Southwest

Location: John Wayne Airport-Orange County Airport

Current Time: Jun 25, 2019 at 7:47:23 pm

Latest Report: Jun 25, 2019 at 6:53 pm


Visibility: 10 mi

Pressure: 29.90 "Hg

Humidity: 73%

Dew Point: 56 °F

Location of 33°41'N, 117°55'WLocation

Past Weather in 33°41'N, 117°55'W — Graph

°F

33°41'N, 117°55'W Temperature Yesterday

Maximum temperature yesterday: 71 °F (at 1:53 pm)
Minimum temperature yesterday: 63 °F (at 12:53 am)
Average temperature yesterday: 66 °F

High & Low Weather Summary for the Past Weeks

 TemperatureHumidityPressure
High82 °F (Jun 11, 1:53 pm)90% (Jun 11, 5:16 am)30.00 "Hg (Jun 11, 5:16 am)
Low62 °F (Jun 13, 4:53 am)49% (Jun 11, 1:53 pm)29.84 "Hg (Jun 17, 3:53 am)
Average66 °F73%29.93 "Hg
* Reported Jun 10 5:53 pm — Jun 25 5:53 pm, 33°41'N, 117°55'W. Weather by CustomWeather, © 2019

Note: Actual official high and low records may vary slightly from our data, if they occured in-between our weather recording intervals... More about our weather records

Advertising

33°41'N, 117°55'W Weather History for the Previous 24 Hours

Scroll right to see more
 ConditionsComfort  
Time TempWeatherWind HumidityBarometerVisibility
5:53 pm
Tue, Jun 25
65 °FMore clouds than sun.9 mph73%29.89 "Hg10 mi
4:53 pm65 °FMostly cloudy.9 mph73%29.90 "Hg10 mi
4:34 pm66 °FMostly cloudy.9 mph73%29.90 "Hg10 mi
3:53 pm65 °FMostly cloudy.9 mph76%29.91 "Hg10 mi
2:53 pm65 °FCloudy.9 mph76%29.92 "Hg10 mi
2:11 pm65 °FLow clouds.13 mph76%29.93 "Hg10 mi
1:53 pm67 °FOvercast.13 mph71%29.92 "Hg10 mi
12:53 pm66 °FOvercast.7 mph70%29.93 "Hg10 mi
11:53 am66 °FOvercast.5 mph70%29.93 "Hg10 mi
10:53 am66 °FOvercast.9 mph73%29.92 "Hg10 mi
9:53 am65 °FOvercast.8 mph76%29.91 "Hg10 mi
8:53 am64 °FOvercast.9 mph78%29.89 "Hg10 mi
7:53 am63 °FOvercast.5 mph84%29.88 "Hg7 mi
6:53 am62 °FOvercast.3 mph86%29.86 "Hg7 mi
5:53 am62 °FOvercast.3 mph83%29.85 "Hg9 mi
4:53 am62 °FOvercast.6 mph86%29.85 "Hg8 mi
3:53 am63 °FLow clouds.5 mph84%29.85 "Hg7 mi
3:23 am63 °FLow clouds.6 mph84%29.86 "Hg10 mi
2:53 am63 °FOvercast.3 mph84%29.86 "Hg8 mi
1:53 am63 °FOvercast.6 mph84%29.86 "Hg10 mi
1:38 am63 °FOvercast.6 mph84%29.87 "Hg7 mi
12:53 am63 °FLow clouds.5 mph84%29.87 "Hg6 mi
11:53 pm
Mon, Jun 24
64 °FOvercast.3 mph75%29.87 "Hg10 mi
10:53 pm64 °FOvercast.5 mph75%29.88 "Hg10 mi
9:53 pm64 °FOvercast.3 mph75%29.89 "Hg10 mi
8:53 pm64 °FOvercast.7 mph75%29.88 "Hg10 mi
7:58 pm65 °FOvercast.10 mph76%29.88 "Hg10 mi
Weather by CustomWeather, © 2019

See weather overview